Тетеров

Германия     53°46′12″N   12°34′24″E
В апреле 2022 года жителям России запретили посещать сайт meteo.paraplan.net по решению Генеральной прокуратуры. Аудитория сайта уменьшилась в 10 раз. Владельцы сайта не видят смысла в поддержке погодного сервера в таких условиях. Сайт будет закрыт в октябре.
темп.,
°C
ветер,
м/с
пор.,
м/с
влажн.,
%
обл.,
%
осадки,
мм/ч
давл.,
гПа
погр.,
м
25 сентября, вс
вс2523:00+11ююз2397100 0.1 101390
02:00+11ю1297100 0.8 1013112
05:00+11ююз2397100 0.4 1013138
08:00+11ююз2395100 0.6 1013116
11:00+12ю238794 0.1 1013239
14:00+13ююз1182100 0.1 1012315
17:00+14юз127619 0.0 1010566
20:00+11ююз239299 0.1 101037
26 сентября, пн
пн2623:00+11з498880 0.3 1009282
02:00+8зюз4894100 0.3 1008202
05:00+8юз41088100 0.0 1006219
08:00+8ююз51184100 0.0 1005342
11:00+12ююз7116991 0.0 1003758
14:00+15юз71058100 0.1 10021528
17:00+14юз51064100 0.2 10001137
20:00+11ююз2471100 0.2 1000119
27 сентября, вт
вт2723:00+11ююз2473100 0.0 999116
02:00+10ю3778100 0.1 998327
05:00+10ю4988100 0.4 996452
08:00+9ю4894100 2.1 996448
11:00+10ю4895100 2.6 996612
14:00+10з3592100 4.3 997291
17:00+12юз3681100 0.5 997478
20:00+9юз3791100 1.0 998209
28 сентября, ср
ср2823:00+7ююз3594100 0.0 998106
02:00+6ююз3797100 0.0 998159
05:00+5ю239557 0.0 99768
08:00+7ююв2592100 0.0 997213
11:00+9ююв3585100 0.0 997465
14:00+9юв2485100 0.1 996477
17:00+8ю3594100 1.5 996307
20:00+7ююз239394 2.1 997140
29 сентября, чт
чт2923:00+7юз359598 0.1 998192
02:00+7зюз3794100 0.2 999221
05:00+7зюз3794100 0.1 999207
08:00+6юз3794100 0.1 1000194
11:00+11зюз577877 0.0 1001553
14:00+14зюз566050 0.1 10021459
17:00+14зюз35605 0.1 10021068
20:00+9юз347915 0.1 100454